This demonstration page uses our WeatherBlox Daily Observations layout. Learn more.

Left ArrowRight Arrow

Hourly Observations for April 27, 2020

Temp ( °F °C ) Dew Point ( °F °C ) Humidity (%) Winds ( mph kmh ) Pressure ( in mb ) Visibility ( mi km ) Precip ( " mm )
12:15 am 00:15 Mostly Cloudy 63 17.4 47 8.2 55 55 N N/A 29.89 1012 10 16 N/A
12:35 am 00:35 Partly Cloudy 62 16.4 47 8.1 58 58 S 8 13 29.90 1012 10 16 N/A
12:55 am 00:55 Clear 59 15 47 8.2 64 64 SSE 10 17 29.92 1013 10 16 N/A
1:15 am 01:15 Clear 59 15.1 47 8.1 63 63 S 9 15 29.91 1013 10 16 N/A
1:35 am 01:35 Clear 58 14.5 47 8.5 67 67 S 9 15 29.90 1013 10 16 N/A
1:55 am 01:55 Clear 59 15 48 8.8 67 67 S 12 19 29.89 1012 10 16 N/A
2:15 am 02:15 Clear 58 14.7 48 9 69 69 S 12 19 29.90 1013 10 16 N/A
2:35 am 02:35 Clear 59 15 48 9 68 68 SSW 13 20 29.90 1013 10 16 N/A
2:55 am 02:55 Clear 58 14.7 48 8.7 68 68 SSW 10 17 29.89 1012 10 16 N/A
3:15 am 03:15 Clear 58 14.2 48 8.7 70 70 SSW 13 20 29.90 1012 10 16 N/A
3:35 am 03:35 Clear 57 13.7 47 8.5 71 71 SW 7 11 29.90 1013 10 16 N/A
3:55 am 03:55 Clear 58 14.4 47 8.6 68 68 SSW 13 20 29.90 1013 10 16 N/A
4:15 am 04:15 Clear 58 14.2 47 8.4 68 68 SW 8 13 29.91 1013 10 16 N/A
4:35 am 04:35 Clear 55 12.9 47 8.1 73 73 SW 5 7 29.92 1013 10 16 N/A
4:55 am 04:55 Clear 54 12.2 46 7.7 74 74 WNW 6 9 29.94 1014 10 16 N/A
5:15 am 05:15 Clear 51 10.3 45 7.3 82 82 W 3 6 29.95 1014 10 16 N/A
5:35 am 05:35 Clear 52 11.1 46 7.8 80 80 SSW 3 6 29.94 1014 10 16 N/A
5:55 am 05:55 Clear 51 10.7 46 7.5 81 81 N N/A 29.96 1014 10 16 N/A
6:15 am 06:15 Clear 52 11.2 46 7.6 79 79 SSW 5 7 29.94 1014 10 16 N/A
6:35 am 06:35 Clear 52 11 46 7.7 80 80 SSW 3 6 29.94 1014 10 16 N/A
6:55 am 06:55 Sunny 50 9.8 45 7.1 83 83 S 6 9 29.95 1014 10 16 N/A
7:15 am 07:15 Sunny 51 10.6 46 7.5 81 81 S 3 6 29.94 1014 10 16 N/A
7:35 am 07:35 Sunny 54 12 47 8.1 77 77 S 5 7 29.93 1013 10 16 N/A
7:55 am 07:55 Sunny 55 12.6 47 8.6 77 77 N N/A 29.93 1014 10 16 N/A
8:15 am 08:15 Sunny 58 14.4 49 9.3 72 72 SSW 5 7 29.91 1013 10 16 N/A
8:35 am 08:35 Sunny 61 16.3 50 9.9 66 66 SSW 7 11 29.89 1012 10 16 N/A
8:55 am 08:55 Sunny 64 17.6 50 10 61 61 SSW 7 11 29.88 1012 10 16 N/A
9:15 am 09:15 Sunny 65 18.6 50 10 58 58 SW 7 11 29.87 1011 10 16 N/A
9:35 am 09:35 Sunny 67 19.5 49 9.5 53 53 WSW 6 9 29.87 1012 10 16 N/A
9:55 am 09:55 Sunny 68 20.1 47 8.6 48 48 W 7 11 29.86 1011 10 16 N/A
10:15 am 10:15 Sunny 70 21 48 8.7 45 45 W 3 6 29.85 1011 10 16 N/A
10:35 am 10:35 Sunny 70 21.3 47 8.2 43 43 NW 5 7 29.85 1011 10 16 N/A
10:55 am 10:55 Sunny 71 21.9 47 8.3 42 42 W 5 7 29.84 1011 10 16 N/A
11:15 am 11:15 Sunny 73 22.6 47 8.3 40 40 W 5 7 29.83 1010 10 16 N/A
11:35 am 11:35 Sunny 74 23.3 46 7.9 37 37 N N/A 29.82 1010 10 16 N/A
11:55 am 11:55 Sunny 76 24.2 45 7.3 34 34 SW 5 7 29.81 1010 10 16 N/A
12:15 pm 12:15 Sunny 77 24.9 45 7.4 33 33 SW 5 7 29.81 1009 10 16 N/A
12:35 pm 12:35 Sunny 78 25.4 45 7.1 31 31 WSW 6 9 29.80 1009 10 16 N/A
12:55 pm 12:55 Sunny 79 26 44 6.7 29 29 W 8 13 29.79 1009 10 16 N/A
1:15 pm 13:15 Sunny 78 25.8 42 5.4 27 27 N N/A 29.78 1008 10 16 N/A
1:35 pm 13:35 Sunny 79 25.9 42 5.8 28 28 NNW 5 7 29.77 1008 10 16 N/A
1:55 pm 13:55 Sunny 80 26.5 42 5.7 26 26 N N/A 29.77 1008 10 16 N/A
2:15 pm 14:15 Sunny 79 26 43 6.2 28 28 N N/A 29.76 1008 10 16 N/A
2:35 pm 14:35 Sunny 82 27.5 42 5.6 25 25 W 5 7 29.74 1007 10 16 N/A
2:55 pm 14:55 Mostly Cloudy 78 25.6 43 5.9 28 28 N N/A 29.74 1007 10 16 N/A
3:15 pm 15:15 Partly Cloudy 81 27.1 42 5.6 25 25 SSW 7 11 29.72 1006 10 16 N/A
3:35 pm 15:35 Partly Cloudy 81 27 41 4.9 24 24 N N/A 29.72 1006 10 16 N/A
3:55 pm 15:55 Partly Cloudy 82 27.6 42 5.3 24 24 SW 5 7 29.71 1006 10 16 N/A
4:15 pm 16:15 Sunny 83 28.2 41 4.9 23 23 SW 10 17 29.69 1005 10 16 N/A
4:35 pm 16:35 Sunny 83 28.1 41 4.8 23 23 S 9 15 29.68 1005 10 16 N/A
4:55 pm 16:55 Sunny 82 27.9 41 5.1 23 23 SSW 3 6 29.68 1005 10 16 N/A
5:15 pm 17:15 Sunny 83 28.1 40 4.5 22 22 WSW 5 7 29.68 1005 10 16 N/A
5:35 pm 17:35 Sunny 83 28.6 39 4.1 21 21 S 15 24 29.68 1005 10 16 N/A
5:55 pm 17:55 Partly Cloudy 83 28.2 40 4.2 22 22 SW 6 9 29.67 1005 10 16 N/A
6:15 pm 18:15 Partly Cloudy 83 28.3 39 4.1 21 21 SW 10 17 29.67 1005 10 16 N/A
6:35 pm 18:35 Partly Cloudy 82 28 38 3.1 20 20 S 5 7 29.67 1005 10 16 N/A
6:55 pm 18:55 Sunny 82 28 38 3.1 20 20 SSW 9 15 29.66 1005 10 16 N/A
7:15 pm 19:15 Sunny 82 27.5 38 3.3 21 21 SW 7 11 29.67 1005 10 16 N/A
7:35 pm 19:35 Sunny 81 27.1 38 3.2 21 21 SSW 6 9 29.67 1005 10 16 N/A
7:55 pm 19:55 Sunny 78 25.3 38 3.3 24 24 SW 7 11 29.69 1005 10 16 N/A
8:15 pm 20:15 Sunny 76 24.6 37 3 25 25 S 6 9 29.69 1005 10 16 N/A
8:35 pm 20:35 Clear 76 24.2 40 4.6 28 28 S 6 9 29.69 1006 10 16 N/A
8:55 pm 20:55 Clear 73 23 40 4.6 30 30 SSW 8 13 29.70 1006 10 16 N/A
9:15 pm 21:15 Clear 71 21.8 41 5 34 34 S 6 9 29.71 1006 10 16 N/A
9:35 pm 21:35 Clear 68 19.8 41 4.8 37 37 SSE 5 7 29.74 1007 10 16 N/A
9:55 pm 21:55 Clear 66 19 44 6.7 45 45 S 10 17 29.75 1007 10 16 N/A
10:15 pm 22:15 Clear 67 19.6 46 7.6 46 46 S 10 17 29.74 1007 10 16 N/A
10:35 pm 22:35 Clear 67 19.7 47 8.3 48 48 S 13 20 29.73 1007 10 16 N/A
10:55 pm 22:55 Clear 67 19.3 47 8.5 50 50 SSE 13 20 29.72 1007 10 16 N/A
11:15 pm 23:15 Clear 66 19 48 8.7 51 51 SSE 14 22 29.72 1006 10 16 N/A
11:35 pm 23:35 Clear 65 18.5 48 9 54 54 S 14 22 29.71 1006 10 16 N/A
11:55 pm 23:55 Clear 64 18 49 9.5 58 58 S 14 22 29.71 1006 10 16 N/A

Powered by AerisWeather